Tracking 33198 objects as of 14-Feb-2026
HD Live streaming from Space Station
objects crossing your sky now

THORAD AGENA D DEB

Track THORAD AGENA D DEB now!
10-day predictions


NORAD ID: 4432
Int'l Code: 1969-082ED
Perigee: 758.7 km
Apogee: 836.9 km
Inclination: 70.0 °
Period: 100.7 minutes
Semi major axis: 7168 km
RCS: 0.039 m2 (small)
Launch date: September 30, 1969
Source: United States (US)
Launch site: AIR FORCE WESTERN TEST RANGE (AFWTR)

Note: This is SATELLITE DEBRIS
Your satellite tracking list
Your tracking list is empty




NASA's NSSDC Master Catalog

Two Line Element Set (TLE):
1  4432U 69082ED  26043.89897184  .00000594  00000-0  24699-3 0  9998
2  4432  69.9748 220.2569 0054554 304.3352  55.2616 14.30311452917317
Source of the keplerian elements: AFSPC